Flag for U.S.A. Weather past 2 weeks in Wainwright, Alaska, U.S.A.

Now
2 °F

Overcast.


Feels Like: -12 °F
Forecast: -6 / 0 °F
Wind: 8 mph from Northeast

Location: Wainwright Distant Early Warning

Current Time: Dec 21, 2014 at 2:46:27 AM

Latest Report: Dec 21, 2014 at 1:53 AM


Visibility: 6 mi

Pressure: 29.65 "Hg

Humidity: 80%

Dew point: -3 °F

Location of WainwrightLocation

Historic Weather in Wainwright — Graph

°F

Wainwright temperature yesterday

Maximum temperature yesterday: 2 °F (at 11:53 PM)
Minimum temperature yesterday: -12 °F (at 5:53 AM)
Average temperature yesterday: -5 °F

Past Weeks' High & Low Weather Summary

 TemperatureHumidityPressure
High2 °F (Dec 20, 11:53 PM)80% (Dec 21, 12:53 AM)30.29 "Hg (Dec 21, 12:53 AM)
Low-28 °F (Dec 15, 10:53 PM)65% (Dec 15, 5:53 PM)29.65 "Hg (Dec 20, 5:53 PM)
Average-13 °F74%29.95 "Hg
* Reported Dec 6 1:53 AM — Dec 21 1:53 AM, Wainwright, Weather by CustomWeather, © 2014

Note: Actual official high and low records may vary slightly from our data, if they occured in-between our weather recording intervals... More about our weather records

Advertising

Wainwright weather history for previous 24 hours

 ConditionsComfort  
Time TempWeatherWind HumidityBarometerVisibility
1:53 AM
Dec 21
2 °FOvercast.8 mph80%29.65 "Hg6 mi
12:53 AM2 °FOvercast.9 mph80%29.65 "Hg6 mi
11:53 PM
Dec 20
2 °FOvercast.7 mph76%29.65 "Hg6 mi
10:53 PM-1 °FLight snow. Overcast.8 mph79%29.65 "Hg4 mi
9:53 PM-1 °FOvercast.6 mph79%29.65 "Hg5 mi
8:53 PM-2 °FOvercast.7 mph78%29.65 "Hg4 mi
7:53 PM-2 °FLight snow. Mostly cloudy.6 mph75%29.66 "Hg5 mi
6:53 PM-3 °FOvercast.9 mph75%29.66 "Hg5 mi
5:53 PM-4 °FOvercast.10 mph79%29.65 "Hg6 mi
4:53 PM-5 °FOvercast.9 mph75%29.65 "Hg6 mi
3:53 PM-8 °FPartly sunny.9 mph74%29.66 "Hg6 mi
2:53 PM-6 °FMore clouds than sun.7 mph75%29.67 "Hg7 mi
1:53 PM-7 °FOvercast.8 mph79%29.67 "Hg6 mi
12:53 PM-7 °FOvercast.10 mph79%29.68 "Hg5 mi
11:53 AM-6 °FOvercast.13 mph75%29.67 "Hg4 mi
10:53 AM-4 °FMore clouds than sun.15 mphN/A29.67 "Hg5 mi
9:53 AM-3 °FOvercast.14 mph75%29.67 "Hg5 mi
8:53 AM-2 °FOvercast.15 mph75%29.67 "Hg6 mi
7:53 AM-2 °FOvercast.15 mph75%29.67 "Hg6 mi
6:53 AM-7 °FOvercast.10 mph79%29.68 "Hg7 mi
5:53 AM-12 °FOvercast.10 mph77%29.69 "Hg4 mi
4:53 AMN/AMostly cloudy.10 mphN/A29.70 "Hg4 mi
3:53 AM-9 °FLow clouds.12 mph74%29.70 "Hg2 mi
2:53 AM-8 °FPassing clouds.15 mph78%29.71 "Hg3 mi
Weather by CustomWeather, © 2014

See weather overviewHow to use our weather pages